Time,TemperatureF,DewpointF,PressureIn,WindDirection,WindDirectionDegrees,WindSpeedMPH,WindSpeedGustMPH,Humidity,HourlyPrecipIn,Conditions,Clouds,dailyrainin,SoftwareType,DateUTC
2013-06-28 00:00:00,83.3,73.8,29.67,South,177,0.0,1.0,73,0.00,,OVC110,0.00,VWS V14.01,2013-06-28 05:00:00,
2013-06-28 00:04:00,83.4,74.2,29.67,South,177,0.0,0.0,74,0.00,,CLR,0.00,VWS V14.01,2013-06-28 05:04:00,
2013-06-28 00:09:00,83.3,74.6,29.66,SSE,165,0.0,1.0,75,0.00,,CLR,0.00,VWS V14.01,2013-06-28 05:09:00,
2013-06-28 00:14:00,83.2,74.1,29.66,South,184,0.0,2.0,74,0.00,,CLR,0.00,VWS V14.01,2013-06-28 05:14:00,
2013-06-28 00:19:00,83.3,74.2,29.66,South,184,0.0,2.0,74,0.00,,CLR,0.00,VWS V14.01,2013-06-28 05:19:00,
2013-06-28 00:24:00,83.4,74.2,29.66,South,184,0.0,2.0,74,0.00,,CLR,0.00,VWS V14.01,2013-06-28 05:24:00,
2013-06-28 00:29:00,83.3,74.2,29.66,South,184,1.0,2.0,74,0.00,,CLR,0.00,VWS V14.01,2013-06-28 05:29:00,
2013-06-28 00:30:00,83.3,74.2,29.66,South,184,1.0,2.0,74,0.00,,OVC110,0.00,VWS V14.01,2013-06-28 05:30:00,
2013-06-28 00:34:00,83.3,74.2,29.66,South,184,0.0,1.0,74,0.00,,CLR,0.00,VWS V14.01,2013-06-28 05:34:00,
2013-06-28 00:39:00,83.2,74.5,29.66,South,184,0.0,1.0,75,0.00,,CLR,0.00,VWS V14.01,2013-06-28 05:39:00,
2013-06-28 00:45:00,83.0,74.3,29.66,South,184,0.0,1.0,75,0.00,,CLR,0.00,VWS V14.01,2013-06-28 05:45:00,
2013-06-28 00:50:00,82.9,74.2,29.66,South,184,0.0,1.0,75,0.00,,CLR,0.00,VWS V14.01,2013-06-28 05:50:00,
2013-06-28 00:55:00,82.9,74.6,29.66,South,182,0.0,1.0,76,0.00,,CLR,0.00,VWS V14.01,2013-06-28 05:55:00,
2013-06-28 01:00:00,82.8,74.5,29.67,South,182,0.0,0.0,76,0.00,,CLR,0.00,VWS V14.01,2013-06-28 06:00:00,
2013-06-28 01:05:00,82.7,74.4,29.67,South,182,0.0,0.0,76,0.00,,CLR,0.00,VWS V14.01,2013-06-28 06:05:00,
2013-06-28 01:10:00,82.6,74.7,29.67,WSW,238,0.0,1.0,77,0.00,,CLR,0.00,VWS V14.01,2013-06-28 06:10:00,
2013-06-28 01:15:00,82.6,74.7,29.67,WSW,248,0.0,1.0,77,0.00,,CLR,0.00,VWS V14.01,2013-06-28 06:15:00,
2013-06-28 01:20:00,82.5,74.9,29.67,WSW,248,0.0,1.0,77,0.00,,CLR,0.00,VWS V14.01,2013-06-28 06:20:00,
2013-06-28 01:25:00,82.4,74.9,29.66,WSW,247,0.0,1.0,78,0.00,,CLR,0.00,VWS V14.01,2013-06-28 06:25:00,
2013-06-28 01:30:00,82.4,74.9,29.66,WSW,247,0.0,0.0,78,0.00,,CLR,0.00,VWS V14.01,2013-06-28 06:30:00,
2013-06-28 01:35:00,82.3,75.1,29.66,WSW,247,0.0,0.0,79,0.00,,CLR,0.00,VWS V14.01,2013-06-28 06:35:00,
2013-06-28 01:40:00,82.2,74.7,29.65,WSW,247,0.0,0.0,78,0.00,,CLR,0.00,VWS V14.01,2013-06-28 06:40:00,
2013-06-28 01:46:00,82.1,74.9,29.64,WSW,247,0.0,0.0,79,0.00,,CLR,0.00,VWS V14.01,2013-06-28 06:46:00,
2013-06-28 01:51:00,82.0,74.8,29.64,WSW,247,0.0,0.0,79,0.00,,CLR,0.00,VWS V14.01,2013-06-28 06:51:00,
2013-06-28 01:56:00,81.9,74.8,29.63,WSW,247,0.0,0.0,79,0.00,,CLR,0.00,VWS V14.01,2013-06-28 06:56:00,
2013-06-28 02:00:00,81.8,74.7,29.63,WSW,247,0.0,0.0,79,0.00,,OVC110,0.00,VWS V14.01,2013-06-28 07:00:00,
2013-06-28 02:01:00,81.7,74.6,29.62,WSW,247,0.0,0.0,79,0.00,,CLR,0.00,VWS V14.01,2013-06-28 07:01:00,
2013-06-28 02:06:00,81.6,74.8,29.62,WSW,247,0.0,0.0,80,0.00,,CLR,0.00,VWS V14.01,2013-06-28 07:06:00,
2013-06-28 02:11:00,81.4,74.6,29.62,WSW,247,0.0,0.0,80,0.00,,CLR,0.00,VWS V14.01,2013-06-28 07:11:00,
2013-06-28 02:16:00,81.3,74.5,29.62,WSW,238,0.0,0.0,80,0.00,,CLR,0.00,VWS V14.01,2013-06-28 07:16:00,
2013-06-28 02:21:00,81.3,74.9,29.62,WSW,238,0.0,0.0,81,0.00,,CLR,0.00,VWS V14.01,2013-06-28 07:21:00,
2013-06-28 02:26:00,81.2,74.8,29.62,SW,221,0.0,0.0,81,0.00,,CLR,0.00,VWS V14.01,2013-06-28 07:26:00,
2013-06-28 02:30:00,81.2,74.8,29.62,SW,217,0.0,2.0,81,0.00,,OVC110,0.00,VWS V14.01,2013-06-28 07:30:00,
2013-06-28 02:31:00,81.3,74.9,29.62,SW,217,0.0,0.0,81,0.00,,CLR,0.00,VWS V14.01,2013-06-28 07:31:00,
2013-06-28 02:36:00,81.5,74.7,29.61,SW,217,0.0,0.0,80,0.00,,CLR,0.00,VWS V14.01,2013-06-28 07:36:00,
2013-06-28 02:42:00,81.6,74.8,29.61,SW,217,0.0,0.0,80,0.00,,CLR,0.00,VWS V14.01,2013-06-28 07:42:00,
2013-06-28 02:47:00,81.6,74.8,29.61,SW,217,0.0,0.0,80,0.00,,CLR,0.00,VWS V14.01,2013-06-28 07:47:00,
2013-06-28 02:52:00,81.6,75.2,29.61,SW,217,0.0,0.0,81,0.00,,CLR,0.00,VWS V14.01,2013-06-28 07:52:00,
2013-06-28 02:57:00,81.5,74.7,29.61,WSW,243,0.0,0.0,80,0.00,,CLR,0.00,VWS V14.01,2013-06-28 07:57:00,
2013-06-28 03:00:00,81.5,74.7,29.61,WSW,257,0.0,1.0,80,0.00,,OVC110,0.00,VWS V14.01,2013-06-28 08:00:00,
2013-06-28 03:02:00,81.5,74.7,29.61,WSW,257,0.0,0.0,80,0.00,,CLR,0.00,VWS V14.01,2013-06-28 08:02:00,
2013-06-28 03:07:00,81.5,74.7,29.61,West,259,0.0,1.0,80,0.00,,CLR,0.00,VWS V14.01,2013-06-28 08:07:00,
2013-06-28 03:12:00,81.6,74.8,29.61,West,259,0.0,1.0,80,0.00,,CLR,0.00,VWS V14.01,2013-06-28 08:12:00,
2013-06-28 03:17:00,81.5,74.7,29.62,West,259,0.0,1.0,80,0.00,,CLR,0.00,VWS V14.01,2013-06-28 08:17:00,
2013-06-28 03:22:00,81.6,74.8,29.62,West,259,0.0,1.0,80,0.00,,CLR,0.00,VWS V14.01,2013-06-28 08:22:00,
2013-06-28 03:27:00,81.5,74.7,29.64,NW,309,4.0,4.0,80,0.00,,CLR,0.00,VWS V14.01,2013-06-28 08:27:00,
2013-06-28 03:30:00,81.5,75.1,29.65,NNW,329,3.0,6.0,81,0.00,,OVC110,0.00,VWS V14.01,2013-06-28 08:30:00,
2013-06-28 03:33:00,81.4,75.0,29.66,NNW,333,2.0,8.0,81,0.00,,CLR,0.00,VWS V14.01,2013-06-28 08:33:00,
2013-06-28 03:38:00,81.3,74.5,29.66,NW,314,3.0,9.0,80,0.00,,CLR,0.00,VWS V14.01,2013-06-28 08:38:00,
2013-06-28 03:43:00,81.2,73.3,29.66,North,5,7.0,9.0,77,0.00,,CLR,0.00,VWS V14.01,2013-06-28 08:43:00,
2013-06-28 03:48:00,81.4,72.7,29.65,WNW,302,0.0,10.0,75,0.00,,CLR,0.00,VWS V14.01,2013-06-28 08:48:00,
2013-06-28 03:53:00,81.6,71.7,29.65,NNE,17,3.0,14.0,72,0.00,,CLR,0.00,VWS V14.01,2013-06-28 08:53:00,
2013-06-28 03:58:00,81.8,71.5,29.65,North,360,0.0,14.0,71,0.00,,CLR,0.00,VWS V14.01,2013-06-28 08:58:00,
2013-06-28 04:00:00,81.8,71.5,29.65,NW,304,3.0,14.0,71,0.00,,OVC110,0.00,VWS V14.01,2013-06-28 09:00:00,
2013-06-28 04:03:00,81.7,70.6,29.65,NW,317,7.0,9.0,69,0.00,,CLR,0.00,VWS V14.01,2013-06-28 09:03:00,
2013-06-28 04:08:00,81.5,69.9,29.65,NW,323,7.0,9.0,68,0.00,,CLR,0.00,VWS V14.01,2013-06-28 09:08:00,
2013-06-28 04:13:00,81.4,69.4,29.66,WNW,303,2.0,9.0,67,0.00,,CLR,0.00,VWS V14.01,2013-06-28 09:13:00,
2013-06-28 04:18:00,81.2,69.2,29.67,North,5,3.0,9.0,67,0.00,,CLR,0.00,VWS V14.01,2013-06-28 09:18:00,
2013-06-28 04:23:00,79.8,70.4,29.65,ENE,57,2.0,11.0,73,0.09,,CLR,0.09,VWS V14.01,2013-06-28 09:23:00,
2013-06-28 04:29:00,77.6,70.2,29.65,East,98,0.0,11.0,78,0.13,,CLR,0.13,VWS V14.01,2013-06-28 09:29:00,
2013-06-28 04:30:00,77.3,70.3,29.65,SE,145,1.0,11.0,79,0.14,,OVC110,0.14,VWS V14.01,2013-06-28 09:30:00,
2013-06-28 04:34:00,75.9,69.7,29.64,ESE,115,0.0,2.0,81,0.14,,CLR,0.14,VWS V14.01,2013-06-28 09:34:00,
2013-06-28 04:39:00,74.7,69.6,29.64,NNW,340,0.0,2.0,84,0.14,,CLR,0.14,VWS V14.01,2013-06-28 09:39:00,
2013-06-28 04:44:00,73.7,69.3,29.64,NNW,344,0.0,2.0,86,0.14,,,0.14,VWS V14.01,2013-06-28 09:44:00,
2013-06-28 04:49:00,73.0,68.9,29.65,SSW,207,0.0,2.0,87,0.14,,,0.14,VWS V14.01,2013-06-28 09:49:00,
2013-06-28 04:54:00,72.3,68.6,29.65,North,355,0.0,6.0,88,0.14,,,0.14,VWS V14.01,2013-06-28 09:54:00,
2013-06-28 04:59:00,71.9,68.2,29.65,SSE,148,0.0,6.0,88,0.14,,,0.14,VWS V14.01,2013-06-28 09:59:00,
2013-06-28 05:00:00,71.9,68.2,29.65,SE,132,0.0,6.0,88,0.14,,OVC110,0.14,VWS V14.01,2013-06-28 10:00:00,
2013-06-28 05:04:00,71.5,68.4,29.66,South,170,0.0,0.0,90,0.14,,,0.14,VWS V14.01,2013-06-28 10:04:00,
2013-06-28 05:09:00,71.2,68.1,29.65,East,80,0.0,2.0,90,0.14,,,0.14,VWS V14.01,2013-06-28 10:09:00,
2013-06-28 05:14:00,70.9,68.2,29.64,East,80,0.0,2.0,91,0.14,,,0.14,VWS V14.01,2013-06-28 10:14:00,
2013-06-28 05:19:00,70.8,68.4,29.63,East,80,0.0,2.0,92,0.14,,,0.14,VWS V14.01,2013-06-28 10:19:00,
2013-06-28 05:25:00,70.6,68.2,29.64,NE,36,0.0,2.0,92,0.14,,,0.14,VWS V14.01,2013-06-28 10:25:00,
2013-06-28 05:30:00,70.6,68.5,29.64,NE,36,0.0,0.0,93,0.00,,,0.14,VWS V14.01,2013-06-28 10:30:00,
2013-06-28 05:35:00,70.6,68.5,29.64,NE,36,0.0,1.0,93,0.00,,,0.14,VWS V14.01,2013-06-28 10:35:00,
2013-06-28 05:40:00,70.7,68.9,29.65,NE,36,0.0,1.0,94,0.00,,,0.14,VWS V14.01,2013-06-28 10:40:00,
2013-06-28 05:45:00,70.7,68.9,29.65,NE,36,0.0,1.0,94,0.00,,CLR,0.14,VWS V14.01,2013-06-28 10:45:00,
2013-06-28 05:50:00,70.7,68.9,29.65,NE,36,0.0,1.0,94,0.00,,CLR,0.14,VWS V14.01,2013-06-28 10:50:00,
2013-06-28 05:55:00,70.7,68.9,29.66,NE,36,0.0,1.0,94,0.00,,CLR,0.14,VWS V14.01,2013-06-28 10:55:00,
2013-06-28 06:00:00,70.6,68.8,29.65,SW,232,0.0,0.0,94,0.00,,CLR,0.14,VWS V14.01,2013-06-28 11:00:00,
2013-06-28 06:05:00,70.6,68.8,29.64,SW,232,0.0,0.0,94,0.00,,CLR,0.14,VWS V14.01,2013-06-28 11:05:00,
2013-06-28 06:10:00,70.6,68.8,29.62,ESE,119,0.0,3.0,94,0.00,,CLR,0.14,VWS V14.01,2013-06-28 11:10:00,
2013-06-28 06:16:00,70.6,68.8,29.64,ESE,118,0.0,3.0,94,0.00,,CLR,0.14,VWS V14.01,2013-06-28 11:16:00,
2013-06-28 06:21:00,70.6,68.8,29.64,ESE,118,0.0,3.0,94,0.00,,CLR,0.14,VWS V14.01,2013-06-28 11:21:00,
2013-06-28 06:26:00,70.5,68.7,29.64,NNW,336,0.0,3.0,94,0.00,,CLR,0.14,VWS V14.01,2013-06-28 11:26:00,
2013-06-28 06:30:00,70.4,68.6,29.64,NNW,336,0.0,3.0,94,0.00,,OVC110,0.14,VWS V14.01,2013-06-28 11:30:00,
2013-06-28 06:31:00,70.4,68.6,29.64,NNW,336,0.0,0.0,94,0.00,,CLR,0.14,VWS V14.01,2013-06-28 11:31:00,
2013-06-28 06:36:00,70.3,68.5,29.64,NNW,336,0.0,0.0,94,0.00,,CLR,0.14,VWS V14.01,2013-06-28 11:36:00,
2013-06-28 06:41:00,70.3,68.5,29.64,NNW,336,0.0,0.0,94,0.00,,FEW110,0.14,VWS V14.01,2013-06-28 11:41:00,
2013-06-28 06:46:00,70.3,68.8,29.64,NNW,336,0.0,0.0,95,0.00,,FEW110,0.14,VWS V14.01,2013-06-28 11:46:00,
2013-06-28 06:51:00,70.3,68.8,29.63,NNW,336,0.0,0.0,95,0.00,,FEW110,0.14,VWS V14.01,2013-06-28 11:51:00,
2013-06-28 06:56:00,70.3,68.8,29.64,NNW,336,0.0,0.0,95,0.00,,FEW110,0.14,VWS V14.01,2013-06-28 11:56:00,
2013-06-28 07:00:00,70.3,68.8,29.63,NNW,336,0.0,0.0,95,0.00,,OVC110,0.14,VWS V14.01,2013-06-28 12:00:00,
2013-06-28 07:01:00,70.3,68.8,29.63,NNW,336,0.0,0.0,95,0.00,,FEW110,0.14,VWS V14.01,2013-06-28 12:01:00,
2013-06-28 07:06:00,70.4,68.9,29.63,NNW,336,0.0,0.0,95,0.00,,FEW110,0.14,VWS V14.01,2013-06-28 12:06:00,
2013-06-28 07:12:00,70.4,68.9,29.63,NNW,336,0.0,0.0,95,0.00,,FEW110,0.14,VWS V14.01,2013-06-28 12:12:00,
2013-06-28 07:17:00,70.6,69.1,29.63,NNW,336,0.0,0.0,95,0.00,,FEW110,0.14,VWS V14.01,2013-06-28 12:17:00,
2013-06-28 07:22:00,70.8,69.6,29.63,NNW,336,0.0,0.0,96,0.00,,FEW110,0.14,VWS V14.01,2013-06-28 12:22:00,
2013-06-28 07:27:00,71.0,69.8,29.63,NNW,346,0.0,0.0,96,0.00,,FEW110,0.14,VWS V14.01,2013-06-28 12:27:00,
2013-06-28 07:30:00,71.0,69.8,29.64,NNW,346,0.0,0.0,96,0.00,,OVC110,0.14,VWS V14.01,2013-06-28 12:30:00,
2013-06-28 07:32:00,71.1,69.6,29.64,NNW,337,1.0,1.0,95,0.00,,FEW110,0.14,VWS V14.01,2013-06-28 12:32:00,
2013-06-28 07:37:00,71.3,69.8,29.65,NW,308,0.0,2.0,95,0.00,,FEW110,0.14,VWS V14.01,2013-06-28 12:37:00,
2013-06-28 07:42:00,71.4,69.6,29.66,NW,313,0.0,2.0,94,0.00,,FEW110,0.14,VWS V14.01,2013-06-28 12:42:00,
2013-06-28 07:47:00,71.6,69.8,29.66,NW,308,0.0,2.0,94,0.00,,FEW110,0.14,VWS V14.01,2013-06-28 12:47:00,
2013-06-28 07:52:00,71.8,70.0,29.66,NW,310,0.0,2.0,94,0.00,,SCT090,0.14,VWS V14.01,2013-06-28 12:52:00,
2013-06-28 07:57:00,71.9,69.8,29.66,NNE,22,0.0,2.0,93,0.00,,SCT090,0.14,VWS V14.01,2013-06-28 12:57:00,
2013-06-28 08:00:00,72.0,69.9,29.66,NNE,22,1.0,2.0,93,0.00,,OVC110,0.14,VWS V14.01,2013-06-28 13:00:00,
2013-06-28 08:03:00,72.1,70.0,29.66,NW,313,0.0,1.0,93,0.00,,SCT090,0.14,VWS V14.01,2013-06-28 13:03:00,
2013-06-28 08:08:00,72.3,70.5,29.67,NNW,334,0.0,1.0,94,0.00,,SCT090,0.14,VWS V14.01,2013-06-28 13:08:00,
2013-06-28 08:13:00,72.5,70.7,29.67,NNW,334,0.0,1.0,94,0.00,,SCT090,0.14,VWS V14.01,2013-06-28 13:13:00,
2013-06-28 08:18:00,72.8,71.0,29.67,NNW,334,0.0,1.0,94,0.00,,SCT090,0.14,VWS V14.01,2013-06-28 13:18:00,
2013-06-28 08:23:00,73.0,71.2,29.67,NNW,332,1.0,1.0,94,0.00,,SCT090,0.14,VWS V14.01,2013-06-28 13:23:00,
2013-06-28 08:28:00,73.3,71.5,29.67,NW,306,0.0,2.0,94,0.00,,SCT090,0.14,VWS V14.01,2013-06-28 13:28:00,
2013-06-28 08:30:00,73.4,71.3,29.67,NW,311,2.0,3.0,93,0.00,,OVC110,0.14,VWS V14.01,2013-06-28 13:30:00,
2013-06-28 08:33:00,73.6,71.5,29.67,NW,305,0.0,3.0,93,0.00,,SCT090,0.14,VWS V14.01,2013-06-28 13:33:00,
2013-06-28 08:38:00,74.0,71.5,29.67,NNW,337,4.0,6.0,92,0.00,,SCT090,0.14,VWS V14.01,2013-06-28 13:38:00,
2013-06-28 08:43:00,74.2,71.4,29.68,NW,310,0.0,6.0,91,0.00,,CLR,0.14,VWS V14.01,2013-06-28 13:43:00,
2013-06-28 08:49:00,74.3,71.2,29.68,NNW,329,2.0,6.0,90,0.00,,CLR,0.14,VWS V14.01,2013-06-28 13:49:00,
2013-06-28 08:54:00,74.3,70.8,29.68,NW,319,0.0,6.0,89,0.00,,CLR,0.14,VWS V14.01,2013-06-28 13:54:00,
2013-06-28 08:59:00,74.4,70.9,29.68,NW,324,1.0,6.0,89,0.00,,CLR,0.14,VWS V14.01,2013-06-28 13:59:00,
2013-06-28 09:00:00,74.4,70.9,29.68,NW,323,2.0,6.0,89,0.00,,OVC110,0.14,VWS V14.01,2013-06-28 14:00:00,
2013-06-28 09:04:00,74.5,71.1,29.69,NW,309,1.0,3.0,89,0.00,,CLR,0.14,VWS V14.01,2013-06-28 14:04:00,
2013-06-28 09:09:00,74.6,71.2,29.69,WNW,294,0.0,3.0,89,0.00,,CLR,0.14,VWS V14.01,2013-06-28 14:09:00,
2013-06-28 09:14:00,74.7,70.9,29.68,NNW,345,0.0,3.0,88,0.00,,CLR,0.14,VWS V14.01,2013-06-28 14:14:00,
2013-06-28 09:19:00,75.0,71.5,29.69,WNW,285,0.0,4.0,89,0.00,,CLR,0.14,VWS V14.01,2013-06-28 14:19:00,
2013-06-28 09:24:00,75.5,71.4,29.68,WNW,292,2.0,5.0,87,0.00,,CLR,0.14,VWS V14.01,2013-06-28 14:24:00,
2013-06-28 09:29:00,76.1,71.9,29.69,West,273,2.0,5.0,87,0.00,,CLR,0.14,VWS V14.01,2013-06-28 14:29:00,
2013-06-28 09:30:00,76.1,71.9,29.69,WNW,294,2.0,5.0,87,0.00,,OVC110,0.14,VWS V14.01,2013-06-28 14:30:00,
2013-06-28 09:34:00,76.8,71.2,29.68,NW,308,6.0,7.0,83,0.00,,CLR,0.14,VWS V14.01,2013-06-28 14:34:00,
2013-06-28 09:39:00,77.4,71.8,29.69,NW,318,0.0,7.0,83,0.00,,CLR,0.14,VWS V14.01,2013-06-28 14:39:00,
2013-06-28 09:45:00,78.1,72.9,29.68,NW,306,0.0,7.0,84,0.00,,BKN080,0.14,VWS V14.01,2013-06-28 14:45:00,
2013-06-28 09:50:00,78.8,72.1,29.68,NNW,334,3.0,7.0,80,0.00,,BKN080,0.14,VWS V14.01,2013-06-28 14:50:00,
2013-06-28 09:55:00,79.6,71.8,29.68,WNW,296,3.0,7.0,77,0.00,,BKN080,0.14,VWS V14.01,2013-06-28 14:55:00,
2013-06-28 10:00:00,80.1,71.9,29.69,NNW,342,5.0,6.0,76,0.00,,BKN080,0.14,VWS V14.01,2013-06-28 15:00:00,
2013-06-28 10:05:00,80.6,73.9,29.69,North,355,3.0,6.0,80,0.00,,BKN080,0.14,VWS V14.01,2013-06-28 15:05:00,
2013-06-28 10:10:00,81.3,72.2,29.69,WNW,292,0.0,6.0,74,0.00,,BKN080,0.14,VWS V14.01,2013-06-28 15:10:00,
2013-06-28 10:15:00,81.7,71.8,29.68,NNW,344,4.0,6.0,72,0.00,,BKN080,0.14,VWS V14.01,2013-06-28 15:15:00,
2013-06-28 10:20:00,82.2,72.3,29.68,NNW,341,1.0,6.0,72,0.00,,BKN080,0.14,VWS V14.01,2013-06-28 15:20:00,
2013-06-28 10:25:00,82.7,72.3,29.68,WNW,296,10.0,10.0,71,0.00,,BKN080,0.14,VWS V14.01,2013-06-28 15:25:00,
2013-06-28 10:30:00,82.9,72.5,29.68,WNW,292,0.0,10.0,71,0.00,,OVC110,0.14,VWS V14.01,2013-06-28 15:30:00,
2013-06-28 10:31:00,83.0,71.8,29.68,NNW,343,0.0,0.0,69,0.00,,BKN080,0.14,VWS V14.01,2013-06-28 15:31:00,
2013-06-28 10:36:00,83.6,71.5,29.69,WNW,296,5.0,5.0,67,0.00,,BKN080,0.14,VWS V14.01,2013-06-28 15:36:00,
2013-06-28 10:41:00,83.7,70.2,29.69,NNW,329,5.0,7.0,64,0.00,,CLR,0.14,VWS V14.01,2013-06-28 15:41:00,
2013-06-28 10:46:00,83.6,70.1,29.69,NNW,334,4.0,8.0,64,0.00,,CLR,0.14,VWS V14.01,2013-06-28 15:46:00,
2013-06-28 10:51:00,83.8,70.3,29.69,NW,319,1.0,8.0,64,0.00,,CLR,0.14,VWS V14.01,2013-06-28 15:51:00,
2013-06-28 10:56:00,84.3,72.2,29.69,NE,37,0.0,8.0,67,0.00,,CLR,0.14,VWS V14.01,2013-06-28 15:56:00,
2013-06-28 11:00:00,84.5,71.4,29.69,NW,307,4.0,8.0,65,0.00,,OVC110,0.14,VWS V14.01,2013-06-28 16:00:00,
2013-06-28 11:01:00,84.5,70.1,29.69,NNW,328,3.0,6.0,62,0.00,,CLR,0.14,VWS V14.01,2013-06-28 16:01:00,
2013-06-28 11:06:00,84.7,70.2,29.69,North,5,3.0,7.0,62,0.00,,CLR,0.14,VWS V14.01,2013-06-28 16:06:00,
2013-06-28 11:11:00,84.9,70.9,29.69,NNW,346,2.0,7.0,63,0.00,,CLR,0.14,VWS V14.01,2013-06-28 16:11:00,
2013-06-28 11:17:00,85.0,70.1,29.69,NW,315,1.0,7.0,61,0.00,,CLR,0.14,VWS V14.01,2013-06-28 16:17:00,
2013-06-28 11:22:00,85.3,72.7,29.69,NE,39,4.0,7.0,66,0.00,,CLR,0.14,VWS V14.01,2013-06-28 16:22:00,
2013-06-28 11:27:00,85.8,69.3,29.69,NE,46,0.0,7.0,58,0.00,,CLR,0.14,VWS V14.01,2013-06-28 16:27:00,
2013-06-28 11:30:00,85.9,69.4,29.69,WNW,298,0.0,7.0,58,0.00,,OVC110,0.14,VWS V14.01,2013-06-28 16:30:00,
2013-06-28 11:32:00,86.1,69.1,29.69,NNW,348,1.0,4.0,57,0.00,,CLR,0.14,VWS V14.01,2013-06-28 16:32:00,
2013-06-28 11:37:00,86.4,70.4,29.70,East,80,0.0,6.0,59,0.00,,CLR,0.14,VWS V14.01,2013-06-28 16:37:00,
2013-06-28 11:42:00,86.7,69.7,29.69,NNE,22,2.0,6.0,57,0.00,,CLR,0.14,VWS V14.01,2013-06-28 16:42:00,
2013-06-28 11:47:00,87.1,71.0,29.69,NW,325,3.0,6.0,59,0.00,,CLR,0.14,VWS V14.01,2013-06-28 16:47:00,
2013-06-28 11:52:00,87.2,70.6,29.69,East,86,0.0,6.0,58,0.00,,CLR,0.14,VWS V14.01,2013-06-28 16:52:00,
2013-06-28 11:58:00,87.3,71.2,29.69,NNW,336,3.0,6.0,59,0.00,,CLR,0.14,VWS V14.01,2013-06-28 16:58:00,
2013-06-28 12:00:00,87.4,69.3,29.70,NNE,26,0.0,7.0,55,0.00,,OVC110,0.14,VWS V14.01,2013-06-28 17:00:00,
2013-06-28 12:03:00,87.4,71.3,29.70,NW,305,2.0,5.0,59,0.00,,CLR,0.14,VWS V14.01,2013-06-28 17:03:00,
2013-06-28 12:08:00,87.6,69.4,29.69,NE,39,1.0,6.0,55,0.00,,CLR,0.14,VWS V14.01,2013-06-28 17:08:00,
2013-06-28 12:13:00,87.9,69.7,29.70,East,97,0.0,8.0,55,0.00,,CLR,0.14,VWS V14.01,2013-06-28 17:13:00,
2013-06-28 12:18:00,87.8,70.2,29.69,WNW,292,0.0,8.0,56,0.00,,CLR,0.14,VWS V14.01,2013-06-28 17:18:00,
2013-06-28 12:23:00,88.1,69.9,29.69,NW,316,6.0,8.0,55,0.00,,CLR,0.14,VWS V14.01,2013-06-28 17:23:00,
2013-06-28 12:28:00,88.3,67.9,29.70,West,263,1.0,8.0,51,0.00,,CLR,0.14,VWS V14.01,2013-06-28 17:28:00,
2013-06-28 12:30:00,88.3,67.9,29.70,NE,39,1.0,8.0,51,0.00,,OVC110,0.14,VWS V14.01,2013-06-28 17:30:00,
2013-06-28 12:33:00,88.6,68.7,29.69,ENE,74,2.0,6.0,52,0.00,,CLR,0.14,VWS V14.01,2013-06-28 17:33:00,
2013-06-28 12:38:00,88.7,68.3,29.69,NNW,347,1.0,7.0,51,0.00,,CLR,0.14,VWS V14.01,2013-06-28 17:38:00,
2013-06-28 12:43:00,88.9,67.9,29.68,NW,308,2.0,8.0,50,0.00,,CLR,0.14,VWS V14.01,2013-06-28 17:43:00,
2013-06-28 12:49:00,88.7,67.1,29.68,WSW,237,0.0,8.0,49,0.00,,CLR,0.14,VWS V14.01,2013-06-28 17:49:00,
2013-06-28 12:54:00,88.9,70.7,29.68,NNE,31,2.0,8.0,55,0.00,,CLR,0.14,VWS V14.01,2013-06-28 17:54:00,
2013-06-28 12:59:00,89.4,71.1,29.68,West,278,3.0,10.0,55,0.00,,CLR,0.14,VWS V14.01,2013-06-28 17:59:00,
2013-06-28 13:00:00,89.5,67.8,29.68,WNW,288,1.0,10.0,49,0.00,,OVC110,0.14,VWS V14.01,2013-06-28 18:00:00,
2013-06-28 13:04:00,89.5,67.2,29.68,NNE,12,1.0,9.0,48,0.00,,CLR,0.14,VWS V14.01,2013-06-28 18:04:00,
2013-06-28 13:09:00,89.5,67.8,29.68,NNW,340,9.0,10.0,49,0.00,,CLR,0.14,VWS V14.01,2013-06-28 18:09:00,
2013-06-28 13:14:00,89.6,68.5,29.68,NW,325,1.0,10.0,50,0.00,,CLR,0.14,VWS V14.01,2013-06-28 18:14:00,
2013-06-28 13:19:00,90.0,68.3,29.67,NW,314,0.0,10.0,49,0.00,,CLR,0.14,VWS V14.01,2013-06-28 18:19:00,
2013-06-28 13:24:00,90.3,66.7,29.67,NNW,344,0.0,10.0,46,0.00,,CLR,0.14,VWS V14.01,2013-06-28 18:24:00,
2013-06-28 13:29:00,90.4,64.9,29.67,NNW,337,0.0,11.0,43,0.00,,CLR,0.14,VWS V14.01,2013-06-28 18:29:00,
2013-06-28 13:30:00,90.4,64.9,29.67,NNW,337,0.0,11.0,43,0.00,,OVC110,0.14,VWS V14.01,2013-06-28 18:30:00,
2013-06-28 13:34:00,90.5,66.3,29.67,NNW,340,4.0,9.0,45,0.00,,CLR,0.14,VWS V14.01,2013-06-28 18:34:00,
2013-06-28 13:40:00,90.7,65.2,29.66,NW,314,2.0,9.0,43,0.00,,CLR,0.14,VWS V14.01,2013-06-28 18:40:00,
2013-06-28 13:45:00,90.6,67.0,29.66,WNW,288,0.0,9.0,46,0.00,,CLR,0.14,VWS V14.01,2013-06-28 18:45:00,
2013-06-28 13:50:00,90.8,66.6,29.66,West,265,1.0,12.0,45,0.00,,CLR,0.14,VWS V14.01,2013-06-28 18:50:00,
2013-06-28 13:55:00,90.9,66.6,29.66,NNE,15,0.0,12.0,45,0.00,,CLR,0.14,VWS V14.01,2013-06-28 18:55:00,
2013-06-28 14:00:00,91.0,65.4,29.66,NNE,28,0.0,0.0,43,0.00,,CLR,0.14,VWS V14.01,2013-06-28 19:00:00,
2013-06-28 14:05:00,90.9,66.6,29.66,North,355,12.0,12.0,45,0.00,,CLR,0.14,VWS V14.01,2013-06-28 19:05:00,
2013-06-28 14:10:00,90.4,64.9,29.65,NW,323,4.0,12.0,43,0.00,,CLR,0.14,VWS V14.01,2013-06-28 19:10:00,
2013-06-28 14:15:00,90.2,67.3,29.65,NW,313,7.0,12.0,47,0.00,,CLR,0.14,VWS V14.01,2013-06-28 19:15:00,
2013-06-28 14:20:00,90.2,66.6,29.64,SW,232,1.0,12.0,46,0.00,,CLR,0.14,VWS V14.01,2013-06-28 19:20:00,
2013-06-28 14:25:00,90.5,64.3,29.64,NNW,339,4.0,12.0,42,0.00,,CLR,0.14,VWS V14.01,2013-06-28 19:25:00,
2013-06-28 14:30:00,90.5,66.9,29.64,NW,311,3.0,12.0,46,0.00,,OVC110,0.14,VWS V14.01,2013-06-28 19:30:00,
2013-06-28 14:31:00,90.4,64.9,29.64,NW,324,4.0,5.0,43,0.00,,CLR,0.14,VWS V14.01,2013-06-28 19:31:00,
2013-06-28 14:36:00,90.6,66.4,29.64,NE,53,3.0,6.0,45,0.00,,CLR,0.14,VWS V14.01,2013-06-28 19:36:00,
2013-06-28 14:41:00,90.6,66.4,29.63,NNW,344,2.0,8.0,45,0.00,,FEW070,0.14,VWS V14.01,2013-06-28 19:41:00,
2013-06-28 14:46:00,90.6,67.0,29.63,NE,39,3.0,10.0,46,0.00,,FEW070,0.14,VWS V14.01,2013-06-28 19:46:00,
2013-06-28 14:51:00,90.8,65.9,29.63,NW,313,7.0,10.0,44,0.00,,FEW070,0.14,VWS V14.01,2013-06-28 19:51:00,
2013-06-28 14:56:00,90.4,66.2,29.63,North,355,1.0,10.0,45,0.00,,FEW070,0.14,VWS V14.01,2013-06-28 19:56:00,
2013-06-28 15:00:00,90.4,64.9,29.63,NW,305,0.0,11.0,43,0.00,,OVC110,0.14,VWS V14.01,2013-06-28 20:00:00,
2013-06-28 15:02:00,90.4,64.9,29.63,WNW,284,9.0,9.0,43,0.00,,FEW070,0.14,VWS V14.01,2013-06-28 20:02:00,
2013-06-28 15:07:00,90.4,63.5,29.63,NW,324,5.0,12.0,41,0.00,,FEW070,0.14,VWS V14.01,2013-06-28 20:07:00,
2013-06-28 15:12:00,90.1,62.5,29.63,WNW,294,2.0,16.0,40,0.00,,FEW070,0.14,VWS V14.01,2013-06-28 20:12:00,
2013-06-28 15:17:00,89.7,64.2,29.62,NW,306,7.0,16.0,43,0.00,,FEW070,0.14,VWS V14.01,2013-06-28 20:17:00,
2013-06-28 15:22:00,89.7,63.6,29.62,WNW,297,4.0,16.0,42,0.00,,FEW070,0.14,VWS V14.01,2013-06-28 20:22:00,
2013-06-28 15:27:00,89.7,64.9,29.62,WNW,290,4.0,16.0,44,0.00,,FEW070,0.14,VWS V14.01,2013-06-28 20:27:00,
2013-06-28 15:30:00,89.8,65.6,29.62,NW,311,8.0,16.0,45,0.00,,OVC110,0.14,VWS V14.01,2013-06-28 20:30:00,
2013-06-28 15:32:00,89.7,65.6,29.62,NNW,331,2.0,13.0,45,0.00,,FEW070,0.14,VWS V14.01,2013-06-28 20:32:00,
2013-06-28 15:38:00,89.7,64.2,29.62,NNE,17,0.0,13.0,43,0.00,,FEW070,0.14,VWS V14.01,2013-06-28 20:38:00,
2013-06-28 15:43:00,89.6,64.8,29.62,NW,316,1.0,13.0,44,0.00,,SCT080,0.14,VWS V14.01,2013-06-28 20:43:00,
2013-06-28 15:48:00,89.8,66.3,29.62,NW,315,4.0,13.0,46,0.00,,SCT080,0.14,VWS V14.01,2013-06-28 20:48:00,
2013-06-28 15:53:00,90.1,65.3,29.61,North,351,3.0,13.0,44,0.00,,SCT080,0.14,VWS V14.01,2013-06-28 20:53:00,
2013-06-28 15:58:00,89.9,63.8,29.62,North,349,0.0,13.0,42,0.00,,SCT080,0.14,VWS V14.01,2013-06-28 20:58:00,
2013-06-28 16:00:00,89.9,64.4,29.62,North,5,13.0,13.0,43,0.00,,OVC110,0.14,VWS V14.01,2013-06-28 21:00:00,
2013-06-28 16:03:00,89.7,64.2,29.62,NW,321,2.0,13.0,43,0.00,,SCT080,0.14,VWS V14.01,2013-06-28 21:03:00,
2013-06-28 16:08:00,89.4,64.0,29.62,NNW,327,6.0,13.0,43,0.00,,SCT080,0.14,VWS V14.01,2013-06-28 21:08:00,
2013-06-28 16:13:00,89.0,64.9,29.62,NE,38,1.0,13.0,45,0.00,,SCT080,0.14,VWS V14.01,2013-06-28 21:13:00,
2013-06-28 16:18:00,89.0,64.9,29.62,West,277,3.0,13.0,45,0.00,,SCT080,0.14,VWS V14.01,2013-06-28 21:18:00,
2013-06-28 16:23:00,89.0,65.6,29.61,NW,325,0.0,13.0,46,0.00,,SCT080,0.14,VWS V14.01,2013-06-28 21:23:00,
2013-06-28 16:29:00,88.9,64.2,29.61,WNW,298,3.0,15.0,44,0.00,,SCT080,0.14,VWS V14.01,2013-06-28 21:29:00,
2013-06-28 16:30:00,88.9,64.2,29.61,NW,321,2.0,15.0,44,0.00,,OVC110,0.14,VWS V14.01,2013-06-28 21:30:00,
2013-06-28 16:34:00,89.1,65.6,29.61,WNW,302,5.0,9.0,46,0.00,,SCT080,0.14,VWS V14.01,2013-06-28 21:34:00,
2013-06-28 16:39:00,89.0,64.3,29.61,WNW,303,8.0,14.0,44,0.00,,SCT080,0.14,VWS V14.01,2013-06-28 21:39:00,
2013-06-28 16:44:00,88.9,63.5,29.61,NNW,340,6.0,14.0,43,0.00,,SCT075,0.14,VWS V14.01,2013-06-28 21:44:00,
2013-06-28 16:49:00,88.8,64.1,29.61,NW,321,8.0,14.0,44,0.00,,SCT075,0.14,VWS V14.01,2013-06-28 21:49:00,
2013-06-28 16:54:00,88.7,64.0,29.61,NW,321,5.0,14.0,44,0.00,,SCT075,0.14,VWS V14.01,2013-06-28 21:54:00,
2013-06-28 16:59:00,88.6,64.6,29.61,NW,319,2.0,14.0,45,0.00,,SCT075,0.14,VWS V14.01,2013-06-28 21:59:00,
2013-06-28 17:00:00,88.6,64.6,29.61,NW,321,1.0,14.0,45,0.00,,OVC110,0.14,VWS V14.01,2013-06-28 22:00:00,
2013-06-28 17:04:00,88.5,65.1,29.61,WNW,287,4.0,12.0,46,0.00,,SCT075,0.14,VWS V14.01,2013-06-28 22:04:00,
2013-06-28 17:09:00,88.2,63.6,29.61,North,11,4.0,12.0,44,0.00,,SCT075,0.14,VWS V14.01,2013-06-28 22:09:00,
2013-06-28 17:15:00,88.1,64.1,29.60,NNW,329,3.0,12.0,45,0.00,,SCT075,0.14,VWS V14.01,2013-06-28 22:15:00,
2013-06-28 17:20:00,88.0,64.0,29.60,NNW,342,2.0,13.0,45,0.00,,SCT075,0.14,VWS V14.01,2013-06-28 22:20:00,
2013-06-28 17:25:00,87.9,64.6,29.60,WNW,288,1.0,13.0,46,0.00,,SCT075,0.14,VWS V14.01,2013-06-28 22:25:00,
2013-06-28 17:30:00,87.9,64.6,29.60,NW,314,4.0,8.0,46,0.00,,SCT075,0.14,VWS V14.01,2013-06-28 22:30:00,
2013-06-28 17:35:00,87.6,64.3,29.60,NW,308,7.0,11.0,46,0.00,,SCT075,0.14,VWS V14.01,2013-06-28 22:35:00,
2013-06-28 17:40:00,87.2,64.5,29.60,NW,309,2.0,12.0,47,0.00,,CLR,0.14,VWS V14.01,2013-06-28 22:40:00,
2013-06-28 17:46:00,87.3,64.6,29.60,NW,324,3.0,12.0,47,0.00,,CLR,0.14,VWS V14.01,2013-06-28 22:46:00,
2013-06-28 17:51:00,87.4,64.7,29.60,WNW,289,6.0,12.0,47,0.00,,CLR,0.14,VWS V14.01,2013-06-28 22:51:00,
2013-06-28 17:56:00,87.3,64.0,29.60,WNW,295,6.0,12.0,46,0.00,,CLR,0.14,VWS V14.01,2013-06-28 22:56:00,
2013-06-28 18:00:00,87.3,64.0,29.59,NW,322,7.0,12.0,46,0.00,,OVC110,0.14,VWS V14.01,2013-06-28 23:00:00,
2013-06-28 18:01:00,87.3,64.6,29.59,NW,318,6.0,7.0,47,0.00,,CLR,0.14,VWS V14.01,2013-06-28 23:01:00,
2013-06-28 18:06:00,87.3,64.6,29.59,NW,322,0.0,7.0,47,0.00,,CLR,0.14,VWS V14.01,2013-06-28 23:06:00,
2013-06-28 18:11:00,87.2,66.9,29.59,NW,313,8.0,8.0,51,0.00,,CLR,0.14,VWS V14.01,2013-06-28 23:11:00,
2013-06-28 18:16:00,87.0,65.0,29.59,WNW,296,2.0,11.0,48,0.00,,CLR,0.14,VWS V14.01,2013-06-28 23:16:00,
2013-06-28 18:21:00,86.7,64.1,29.59,NNW,331,1.0,11.0,47,0.00,,CLR,0.14,VWS V14.01,2013-06-28 23:21:00,
2013-06-28 18:27:00,86.6,64.0,29.58,NNW,329,9.0,13.0,47,0.00,,CLR,0.14,VWS V14.01,2013-06-28 23:27:00,
2013-06-28 18:30:00,86.5,64.5,29.59,North,350,5.0,13.0,48,0.00,,OVC110,0.14,VWS V14.01,2013-06-28 23:30:00,
2013-06-28 18:32:00,86.4,64.4,29.58,NW,313,2.0,6.0,48,0.00,,CLR,0.14,VWS V14.01,2013-06-28 23:32:00,
2013-06-28 18:37:00,86.3,64.9,29.58,NNW,331,3.0,10.0,49,0.00,,CLR,0.14,VWS V14.01,2013-06-28 23:37:00,
2013-06-28 18:42:00,85.9,64.0,29.58,NNE,12,3.0,10.0,48,0.00,,CLR,0.14,VWS V14.01,2013-06-28 23:42:00,
2013-06-28 18:47:00,85.6,64.8,29.58,NNW,327,5.0,10.0,50,0.00,,CLR,0.14,VWS V14.01,2013-06-28 23:47:00,
2013-06-28 18:52:00,85.4,65.2,29.58,NW,313,1.0,10.0,51,0.00,,CLR,0.14,VWS V14.01,2013-06-28 23:52:00,
2013-06-28 18:57:00,85.0,64.9,29.58,NW,321,3.0,10.0,51,0.00,,CLR,0.14,VWS V14.01,2013-06-28 23:57:00,
2013-06-28 19:00:00,84.9,65.3,29.58,WNW,298,3.0,10.0,52,0.00,,OVC110,0.14,VWS V14.01,2013-06-29 00:00:00,
2013-06-28 19:02:00,84.8,64.7,29.58,NNW,347,5.0,10.0,51,0.00,,CLR,0.14,VWS V14.01,2013-06-29 00:02:00,
2013-06-28 19:07:00,84.5,65.0,29.58,NNW,342,3.0,10.0,52,0.00,,CLR,0.14,VWS V14.01,2013-06-29 00:07:00,
2013-06-28 19:12:00,84.3,65.3,29.58,NNW,336,0.0,10.0,53,0.00,,BKN080,0.14,VWS V14.01,2013-06-29 00:12:00,
2013-06-28 19:18:00,84.1,66.2,29.58,NW,305,2.0,10.0,55,0.00,,BKN080,0.14,VWS V14.01,2013-06-29 00:18:00,
2013-06-28 19:23:00,83.9,66.0,29.58,NW,323,3.0,10.0,55,0.00,,BKN080,0.14,VWS V14.01,2013-06-29 00:23:00,
2013-06-28 19:28:00,83.8,65.9,29.58,NW,317,0.0,11.0,55,0.00,,BKN080,0.14,VWS V14.01,2013-06-29 00:28:00,
2013-06-28 19:30:00,83.8,65.9,29.58,NW,317,9.0,11.0,55,0.00,,OVC110,0.14,VWS V14.01,2013-06-29 00:30:00,
2013-06-28 19:33:00,83.9,66.0,29.58,NNW,336,1.0,9.0,55,0.00,,BKN080,0.14,VWS V14.01,2013-06-29 00:33:00,
2013-06-28 19:38:00,83.8,66.4,29.58,NNW,342,1.0,9.0,56,0.00,,BKN080,0.14,VWS V14.01,2013-06-29 00:38:00,
2013-06-28 19:43:00,83.7,66.3,29.58,NW,320,0.0,9.0,56,0.00,,BKN080,0.14,VWS V14.01,2013-06-29 00:43:00,
2013-06-28 19:48:00,83.5,66.7,29.59,NW,308,0.0,9.0,57,0.00,,BKN080,0.14,VWS V14.01,2013-06-29 00:48:00,
2013-06-28 19:53:00,83.3,66.5,29.58,NW,314,3.0,9.0,57,0.00,,BKN080,0.14,VWS V14.01,2013-06-29 00:53:00,
2013-06-28 19:58:00,83.0,66.7,29.59,NW,320,2.0,9.0,58,0.00,,BKN080,0.14,VWS V14.01,2013-06-29 00:58:00,
2013-06-28 20:00:00,83.0,66.7,29.59,WNW,294,1.0,9.0,58,0.00,,OVC110,0.14,VWS V14.01,2013-06-29 01:00:00,
2013-06-28 20:03:00,82.8,66.5,29.59,NW,318,2.0,6.0,58,0.00,,BKN080,0.14,VWS V14.01,2013-06-29 01:03:00,
2013-06-28 20:09:00,82.5,67.2,29.59,NW,304,4.0,6.0,60,0.00,,BKN080,0.14,VWS V14.01,2013-06-29 01:09:00,
2013-06-28 20:14:00,82.2,67.4,29.59,NW,304,0.0,6.0,61,0.00,,BKN080,0.14,VWS V14.01,2013-06-29 01:14:00,
2013-06-28 20:19:00,81.8,67.1,29.59,NNW,340,2.0,6.0,61,0.00,,BKN080,0.14,VWS V14.01,2013-06-29 01:19:00,
2013-06-28 20:24:00,81.4,66.7,29.59,NW,311,1.0,6.0,61,0.00,,BKN080,0.14,VWS V14.01,2013-06-29 01:24:00,
2013-06-28 20:29:00,81.1,66.4,29.59,NW,309,4.0,6.0,61,0.00,,BKN080,0.14,VWS V14.01,2013-06-29 01:29:00,
2013-06-28 20:30:00,81.1,66.4,29.59,NW,325,3.0,6.0,61,0.00,,OVC110,0.14,VWS V14.01,2013-06-29 01:30:00,
2013-06-28 20:34:00,80.8,66.1,29.59,NW,316,4.0,6.0,61,0.00,,BKN080,0.14,VWS V14.01,2013-06-29 01:34:00,
2013-06-28 20:39:00,80.6,65.4,29.59,NW,319,0.0,6.0,60,0.00,,BKN080,0.14,VWS V14.01,2013-06-29 01:39:00,
2013-06-28 20:44:00,80.4,65.3,29.59,NW,319,0.0,6.0,60,0.00,,CLR,0.14,VWS V14.01,2013-06-29 01:44:00,
2013-06-28 20:49:00,80.2,66.0,29.59,NW,325,0.0,6.0,62,0.00,,CLR,0.14,VWS V14.01,2013-06-29 01:49:00,
2013-06-28 20:55:00,79.9,65.7,29.60,WNW,302,1.0,6.0,62,0.00,,CLR,0.14,VWS V14.01,2013-06-29 01:55:00,
2013-06-28 21:00:00,79.6,65.4,29.60,NW,314,0.0,0.0,62,0.00,,CLR,0.14,VWS V14.01,2013-06-29 02:00:00,
2013-06-28 21:05:00,79.3,65.2,29.60,NNW,342,0.0,3.0,62,0.00,,CLR,0.14,VWS V14.01,2013-06-29 02:05:00,
2013-06-28 21:10:00,79.0,64.9,29.60,NNW,336,1.0,6.0,62,0.00,,CLR,0.14,VWS V14.01,2013-06-29 02:10:00,
2013-06-28 21:15:00,78.7,65.1,29.60,NW,313,1.0,6.0,63,0.00,,CLR,0.14,VWS V14.01,2013-06-29 02:15:00,
2013-06-28 21:20:00,78.5,64.9,29.60,NW,310,5.0,6.0,63,0.00,,CLR,0.14,VWS V14.01,2013-06-29 02:20:00,
2013-06-28 21:25:00,78.3,63.8,29.60,NW,315,2.0,6.0,61,0.00,,CLR,0.14,VWS V14.01,2013-06-29 02:25:00,
2013-06-28 21:30:00,78.2,63.7,29.60,NW,313,4.0,4.0,61,0.00,,CLR,0.14,VWS V14.01,2013-06-29 02:30:00,
2013-06-28 21:35:00,78.1,63.6,29.60,NNW,338,5.0,7.0,61,0.00,,CLR,0.14,VWS V14.01,2013-06-29 02:35:00,
2013-06-28 21:40:00,77.9,62.9,29.60,NNW,327,1.0,7.0,60,0.00,,CLR,0.14,VWS V14.01,2013-06-29 02:40:00,
2013-06-28 21:46:00,77.8,61.9,29.60,NNW,346,1.0,7.0,58,0.00,,CLR,0.14,VWS V14.01,2013-06-29 02:46:00,
2013-06-28 21:51:00,77.8,61.9,29.61,North,355,0.0,7.0,58,0.00,,CLR,0.14,VWS V14.01,2013-06-29 02:51:00,
2013-06-28 21:56:00,77.8,62.3,29.61,NW,311,1.0,7.0,59,0.00,,CLR,0.14,VWS V14.01,2013-06-29 02:56:00,
2013-06-28 22:00:00,77.6,61.7,29.61,NNW,331,0.0,7.0,58,0.00,,OVC110,0.14,VWS V14.01,2013-06-29 03:00:00,
2013-06-28 22:01:00,77.6,62.2,29.61,NNW,331,0.0,1.0,59,0.00,,CLR,0.14,VWS V14.01,2013-06-29 03:01:00,
2013-06-28 22:06:00,77.4,62.4,29.61,NNW,340,0.0,6.0,60,0.00,,CLR,0.14,VWS V14.01,2013-06-29 03:06:00,
2013-06-28 22:11:00,77.2,61.8,29.61,WNW,299,5.0,6.0,59,0.00,,CLR,0.14,VWS V14.01,2013-06-29 03:11:00,
2013-06-28 22:16:00,77.1,62.2,29.61,NW,305,3.0,6.0,60,0.00,,CLR,0.14,VWS V14.01,2013-06-29 03:16:00,
2013-06-28 22:21:00,76.9,61.5,29.61,NW,319,0.0,6.0,59,0.00,,CLR,0.14,VWS V14.01,2013-06-29 03:21:00,
2013-06-28 22:26:00,76.7,61.8,29.62,WNW,292,1.0,6.0,60,0.00,,CLR,0.14,VWS V14.01,2013-06-29 03:26:00,
2013-06-28 22:30:00,76.6,62.2,29.62,NNW,327,0.0,6.0,61,0.00,,OVC110,0.14,VWS V14.01,2013-06-29 03:30:00,
2013-06-28 22:31:00,76.5,61.6,29.62,NNW,334,0.0,2.0,60,0.00,,CLR,0.14,VWS V14.01,2013-06-29 03:31:00,
2013-06-28 22:37:00,76.3,61.4,29.62,NW,306,1.0,2.0,60,0.00,,CLR,0.14,VWS V14.01,2013-06-29 03:37:00,
2013-06-28 22:42:00,76.1,61.2,29.62,NW,326,0.0,5.0,60,0.00,,CLR,0.14,VWS V14.01,2013-06-29 03:42:00,
2013-06-28 22:47:00,75.9,61.5,29.62,NNW,327,0.0,5.0,61,0.00,,CLR,0.14,VWS V14.01,2013-06-29 03:47:00,
2013-06-28 22:52:00,75.7,61.3,29.62,NNW,327,0.0,5.0,61,0.00,,CLR,0.14,VWS V14.01,2013-06-29 03:52:00,
2013-06-28 22:57:00,75.5,61.1,29.62,WNW,303,0.0,5.0,61,0.00,,CLR,0.14,VWS V14.01,2013-06-29 03:57:00,
2013-06-28 23:00:00,75.3,61.4,29.62,NW,321,0.0,5.0,62,0.00,,OVC110,0.14,VWS V14.01,2013-06-29 04:00:00,
2013-06-28 23:01:00,75.3,61.4,29.63,NW,320,1.0,1.0,62,0.00,,CLR,0.14,VWS V14.01,2013-06-29 04:01:00,
2013-06-28 23:02:00,75.2,61.8,29.62,NW,320,0.0,1.0,63,0.00,,CLR,0.14,VWS V14.01,2013-06-29 04:02:00,
2013-06-28 23:03:00,75.2,61.3,29.62,NW,320,0.0,1.0,62,0.00,,CLR,0.14,VWS V14.01,2013-06-29 04:03:00,
2013-06-28 23:08:00,74.9,61.5,29.62,NW,306,1.0,2.0,63,0.00,,CLR,0.14,VWS V14.01,2013-06-29 04:08:00,
2013-06-28 23:13:00,74.6,60.7,29.63,NW,319,0.0,2.0,62,0.00,,CLR,0.14,VWS V14.01,2013-06-29 04:13:00,
2013-06-28 23:18:00,74.4,61.0,29.63,NW,321,0.0,2.0,63,0.00,,CLR,0.14,VWS V14.01,2013-06-29 04:18:00,
2013-06-28 23:23:00,74.2,60.8,29.63,North,350,0.0,4.0,63,0.00,,CLR,0.14,VWS V14.01,2013-06-29 04:23:00,
2013-06-28 23:29:00,74.1,60.7,29.63,NW,321,0.0,4.0,63,0.00,,CLR,0.14,VWS V14.01,2013-06-29 04:29:00,
2013-06-28 23:30:00,74.0,60.6,29.63,NW,321,0.0,4.0,63,0.00,,OVC110,0.14,VWS V14.01,2013-06-29 04:30:00,
2013-06-28 23:34:00,73.9,60.5,29.63,NW,319,0.0,1.0,63,0.00,,CLR,0.14,VWS V14.01,2013-06-29 04:34:00,
2013-06-28 23:39:00,73.8,60.4,29.63,NW,323,1.0,2.0,63,0.00,,CLR,0.14,VWS V14.01,2013-06-29 04:39:00,
2013-06-28 23:44:00,73.7,60.3,29.63,NW,323,0.0,2.0,63,0.00,,CLR,0.14,VWS V14.01,2013-06-29 04:44:00,
2013-06-28 23:49:00,73.6,60.2,29.63,WNW,303,0.0,2.0,63,0.00,,CLR,0.14,VWS V14.01,2013-06-29 04:49:00,
2013-06-28 23:54:00,73.5,60.2,29.63,NW,304,0.0,2.0,63,0.00,,CLR,0.14,VWS V14.01,2013-06-29 04:54:00,
2013-06-28 23:59:00,73.4,61.4,29.64,NW,317,0.0,2.0,66,0.00,,CLR,0.14,VWS V14.01,2013-06-29 04:59:00,